Location: Mannheim
(49.4880°N, 8.4650°E)
Time: 05:54:16
(UTC+02:00)

ISS - Pass Details

Date: 10 July 2024
Orbit: 409 x 423 km, 51.6° (Epoch: 24 July)

Event Time Altitude Azimuth Distance (km) Brightness Sun altitude
Rises 03:01:09 0° 287° (WNW) 2,345 0.0 -15.6°
Reaches altitude 10° 03:03:15 10° 288° (WNW) 1,483 -1.0 -15.5°
Maximum altitude 03:06:34 85° 14° (NNE) 420 -3.8 -15.3°
Drops below altitude 10° 03:09:55 10° 107° (ESE) 1,487 -0.9 -15.1°
Sets 03:12:01 0° 108° (ESE) 2,351 0.1 -14.9°
